Location: Las Brisas Observatory
(38.8767°N, 105.2775°W)
Time: 21:23:35
(UTC-07:00)

ISS - Visible Passes

Search period start: 19 January 2019 00:00
Search period end: 29 January 2019 00:00
Orbit: 404 x 410 km, 51.6° (Epoch: 20 January)

Date Brightness Start Highest point End Pass type
(mag) Time Alt. Az. Time Alt. Az. Time Alt. Az.
19 Jan -1.4 18:33:53 10° SSE 18:34:36 12° SSE 18:34:36 12° SSE visible
20 Jan -1.7 19:17:11 10° SW 19:18:37 24° SW 19:18:37 24° SW visible
21 Jan -3.0 18:26:08 10° SSW 18:29:09 35° SE 18:29:47 32° ESE visible
22 Jan -2.0 17:35:36 10° S 17:37:57 18° SE 17:40:18 10° E visible
22 Jan -2.4 19:11:06 10° WSW 19:13:36 37° WNW 19:13:36 37° WNW visible
23 Jan -3.8 18:19:34 10° SW 18:22:50 82° NW 18:24:35 25° NE visible
24 Jan -1.8 19:05:33 10° W 19:08:11 22° NNW 19:08:13 22° NNW visible
25 Jan -2.5 18:13:35 10° W 18:16:37 33° NNW 18:19:03 14° NNE visible
26 Jan -1.3 19:00:25 10° NW 19:02:12 14° NNW 19:02:32 14° N visible
27 Jan -1.6 18:08:07 10° WNW 18:10:30 19° NNW 18:12:56 10° NNE visible
28 Jan -1.1 18:55:53 10° NNW 18:56:18 10° N 18:56:38 10° N visible
